Location: Centrum přírodních věd - Hvězdárna Jičín
(50.4344°N, 15.3406°E)
Time: 15:24:20
(UTC+02:00)

ISS - Visible Passes

Search period start: 18 July 2024 00:00
Search period end: 28 July 2024 00:00
Orbit: 410 x 424 km, 51.6° (Epoch: 18 July)

Date Brightness Start Highest point End Pass type
(mag) Time Alt. Az. Time Alt. Az. Time Alt. Az.
18 Jul -3.9 23:03:52 10° WNW 23:07:11 81° SSW 23:09:07 23° ESE visible
19 Jul -1.6 00:40:55 10° W 00:41:59 16° WSW 00:41:59 16° WSW visible
19 Jul -3.8 22:15:27 10° WNW 22:18:47 83° NNE 22:22:06 10° E visible
19 Jul -2.8 23:52:19 10° W 23:55:02 32° SW 23:55:02 32° SW visible
20 Jul -3.4 23:03:48 10° W 23:07:00 47° SSW 23:08:05 32° SSE visible
21 Jul -3.7 22:15:18 10° WNW 22:18:35 65° SSW 22:21:09 15° ESE visible
21 Jul -1.6 23:52:41 10° W 23:54:02 15° WSW 23:54:02 15° WSW visible
22 Jul -2.4 23:03:48 10° W 23:06:33 24° SW 23:07:06 23° SSW visible
23 Jul -2.8 22:15:04 10° W 22:18:08 35° SSW 22:20:11 17° SSE visible
24 Jul -1.4 23:04:32 10° WSW 23:05:45 12° SW 23:06:09 11° SW visible
25 Jul -1.7 22:15:04 10° W 22:17:22 18° SW 22:19:16 12° S visible
